Cloud_Cover
100 100 100 100 100 100 100 100 100 91 97 84 75 66 100 38 80 83 20 75 54 21 10 44 60 15 5 70 5 5 5 1 4 3 1 3 46 87 41 5 2 1 0 0 0 0 0 0 0
100 100 100 100 100 100 100 100 93 100 100 100 97 100 100 100 91 78 84 100 96 52 18 61 8 19 7 38 7 7 5 16 5 5 28 42 100 83 62 5 90 12 2 16 22 1 0 0 0
100 100 100 100 100 100 100 100 100 100 100 100 100 100 100 100 88 30 73 92 72 24 70 97 86 92 97 100 61 71 22 74 46 94 98 100 100 32 81 100 28 0 12 29 18 12 0 0 0
100 100 100 100 100 100 100 100 100 100 100 100 100 100 100 100 100 98 73 69 42 100 100 100 100 100 100 52 100 37 100 91 100 100 100 100 100 100 100 92 2 0 0 0 0 0 0 0 0
100 100 100 100 100 100 100 94 100 100 100 100 100 100 100 100 100 94 23 97 100 100 100 100 50 100 100 74 91 94 84 100 100 100 100 94 100 100 100 34 38 0 0 0 0 0 0 0 0
100 100 100 100 100 100 100 100 100 100 100 100 100 97 79 100 100 100 100 100 100 100 99 12 64 89 90 77 100 100 100 100 100 100 100 100 100 45 17 5 0 0 0 0 0 0 0 0 0
100 100 100 100 100 100 100 100 100 100 100 100 100 100 100 100 100 51 100 100 100 100 91 100 92 100 91 100 100 100 100 100 100 100 100 100 100 92 5 3 0 0 0 0 0 0 0 0 0
100 100 100 100 100 100 100 100 100 100 100 100 100 100 100 100 66 58 100 100 100 100 100 100 100 100 100 100 100 100 100 100 100 100 95 21 5 5 2 0 0 0 0 0 0 0 0 0 0
100 100 100 100 100 100 100 100 100 100 100 100 100 100 100 100 100 100 100 100 100 100 100 100 100 100 100 100 100 100 100 100 100 100 100 6 5 0 0 0 0 0 0 0 0 0 0 0 0
100 100 100 100 100 100 100 100 100 100 100 100 100 100 100 100 100 100 100 100 100 100 100 100 100 100 100 100 100 100 100 100 100 40 60 5 0 0 0 0 0 0 0 0 0 0 0 0 0
100 100 100 100 100 100 100 100 100 100 100 100 97 100 100 100 100 100 100 100 100 100 100 100 100 100 100 100 100 100 100 100 76 3 0 0 0 0 0 0 0 0 0 0 0 0 0 0 0
100 100 100 100 100 100 100 100 100 100 100 100 100 100 98 99 100 100 100 100 100 100 100 100 100 100 100 100 100 100 100 3 0 0 0 0 0 0 0 1 0 0 0 1 0 0 0 0 0
100 99 89 100 100 100 100 100 100 100 100 100 100 100 100 100 100 100 100 100 100 100 100 100 100 100 100 100 99 71 2 0 0 2 3 0 0 0 0 0 0 0 0 0 0 0 0 0 0
100 100 82 100 100 100 100 100 100 100 100 100 100 100 100 100 100 100 100 100 100 100 100 100 100 100 100 54 23 95 100 98 100 30 5 0 0 0 0 0 0 0 0 0 0 0 0 0 0
100 100 100 100 94 100 100 100 100 100 100 100 100 100 100 100 100 100 100 100 100 100 100 100 97 100 36 1 90 98 22 6 5 5 0 0 0 0 1 5 5 1 4 1 2 5 1 5 5
100 100 100 100 100 100 100 100 100 100 100 100 100 100 100 100 99 83 54 98 68 72 86 97 4 8 17 100 100 86 92 60 35 2 0 0 1 5 5 5 5 5 4 5 5 5 5 5 5
100 100 100 100 100 92 66 99 100 95 37 47 97 98 100 34 1 0 1 2 5 5 5 5 0 14 92 100 100 84 30 0 0 0 4 5 4 2 0 1 4 1 5 5 5 5 2 5 5
100 100 100 100 100 100 100 100 55 85 86 53 44 14 2 0 0 0 0 2 1 5 5 28 81 100 100 100 81 3 0 0 4 31 23 50 87 100 40 17 21 27 18 5 5 1 3 5 5
29 5 5 19 45 2 0 4 36 1 0 0 0 0 0 0 0 0 0 0 5 4 5 50 100 56 66 29 0 0 5 2 5 5 18 58 99 100 100 99 68 23 5 5 6 5 5 5 5
5 5 0 0 0 0 0 0 0 0 0 0 0 0 0 0 0 0 0 9 3 3 24 44 0 0 4 5 5 5 5 18 62 89 85 77 84 98 99 43 14 63 84 3 1 0 4 5 5
4 0 0 0 0 0 0 0 0 0 0 0 0 0 2 18 5 4 4 0 0 0 1 0 0 0 1 5 5 22 98 17 31 17 5 5 5 4 3 4 0 1 0 2 4 5 5 4 5
0 0 0 0 0 0 0 0 0 0 0 0 0 0 76 100 90 61 44 65 3 0 0 0 13 60 6 5 5 6 5 82 52 42 31 5 5 4 0 0 0 0 3 5 29 77 24 57 98
0 0 0 0 0 0 0 0 0 0 0 0 0 3 100 100 95 98 100 99 0 1 3 3 0 0 0 0 4 8 15 94 100 100 100 100 100 94 100 100 100 100 99 27 6 6 5 5 5
0 0 0 0 0 0 0 0 0 0 0 8 5 54 92 63 97 42 58 5 5 5 2 2 0 1 2 5 5 65 100 100 100 100 100 100 92 93 98 95 73 31 59 99 54 5 8 5 6
0 0 0 0 2 3 2 3 5 9 28 5 75 6 39 65 78 94 83 99 92 96 32 5 5 5 47 43 64 26 21 88 93 34 16 5 5 12 43 97 100 100 78 11 5 64 99 99 100
0 0 0 0 0 0 0 0 0 5 54 5 75 88 80 99 100 100 100 67 6 4 5 30 92 100 100 100 93 57 92 98 59 79 99 100 100 100 100 92 63 10 5 5 7 6 6 5 5
0 0 0 0 0 0 0 0 4 16 42 99 94 95 95 89 100 80 78 23 45 67 55 62 78 100 100 100 100 92 34 86 100 100 100 100 92 20 5 2 5 5 11 100 39 5 6 32 5
0 0 0 0 0 0 0 1 5 6 72 70 40 5 22 52 77 100 87 100 58 32 23 12 22 46 85 62 61 100 62 62 66 71 47 4 0 1 0 5 5 5 82 99 75 52 90 92 100
0 0 0 0 0 0 4 0 3 5 6 28 65 100 100 88 73 91 93 52 100 71 37 44 93 34 21 98 76 25 36 7 5 1 0 0 0 4 0 0 5 5 5 5 10 14 30 67 77
0 0 0 0 0 0 0 1 0 5 36 27 52 99 90 100 78 89 99 91 22 5 6 27 5 34 11 5 5 5 5 1 0 0 0 0 1 5 5 0 5 4 3 5 5 5 5 5 5